Tracking 17938 objects as of 24-February-2017
HD Live streaming from Space Station
objects crossing your sky now

COSMOS 963

Track COSMOS 963 now!
10-day predictions
COSMOS 963 is classified as:


NORAD ID: 10491
Int'l Code: 1977-109A
Perigee: 1,189.0 km
Apogee: 1,213.3 km
Inclination: 82.9 °
Period: 109.3 minutes
Semi major axis: 7572 km
RCS: 3.0327 m2 (large)
Launch date: November 24, 1977
Source: Commonwealth of Independent States (former USSR) (CIS)
Launch site: PLESETSK MISSILE AND SPACE COMPLEX (PKMTR)
Your satellite tracking list
Your tracking list is empty





NASA's NSSDC Master Catalog

Two Line Element Set (TLE):
1 10491U 77109A   17054.07147442 -.00000042  00000-0 -14260-3 0  9999
2 10491  82.9304  34.4171 0016090  24.9904  44.4913 13.17570819888064
Source of the keplerian elements: AFSPC